Wind_Speed
36 37 38 40 40 41 41 42 43 44 44 44 44 44 44 44 44 43 43 44 46 46 48 49 48 47 46 45 43 42 40 38 36 34 32 31 30 29
35 36 38 40 40 41 42 43 44 45 45 46 46 46 46 45 46 44 44 44 46 47 48 49 49 49 48 47 45 43 41 39 37 35 33 32 30 30
36 36 37 39 40 41 42 43 44 45 46 47 48 47 47 47 46 46 45 45 45 47 48 47 48 49 49 48 47 45 43 40 38 36 34 33 31 30
37 37 37 38 39 40 41 43 44 45 46 46 48 48 47 47 47 47 46 46 45 45 46 47 48 49 50 49 47 46 44 42 40 38 35 34 32 30
37 37 37 38 39 40 40 42 43 44 46 46 47 48 48 48 48 46 46 46 47 46 46 47 48 49 50 50 49 47 45 44 41 39 37 34 33 31
37 36 36 37 37 39 40 41 42 44 45 46 48 49 49 49 49 48 46 47 47 47 46 46 47 48 49 50 49 48 46 44 42 40 38 35 33 31
36 36 36 36 37 38 39 40 42 43 44 46 47 49 50 50 50 50 48 47 47 47 47 46 46 47 48 50 50 49 47 46 43 41 39 36 34 33
36 35 35 35 36 37 38 40 41 43 44 46 47 49 50 51 52 52 51 49 47 47 47 46 46 47 49 49 50 49 48 46 44 42 40 37 35 33
35 35 35 35 36 36 37 39 41 42 44 46 47 49 50 51 52 53 53 50 48 47 47 46 46 47 48 50 50 50 49 48 46 43 41 39 36 34
34 34 35 35 36 36 37 38 40 41 43 46 47 49 52 53 53 53 53 52 51 49 47 46 46 46 47 49 51 51 51 49 47 45 43 40 38 35
33 34 34 33 34 35 36 36 38 40 43 45 47 49 52 53 54 54 54 53 52 50 48 46 45 45 46 47 49 50 50 50 49 46 43 41 39 36
33 33 32 31 32 33 34 36 37 39 42 44 46 49 51 54 56 56 56 56 54 52 50 47 45 44 45 46 47 48 49 50 49 47 44 42 40 37
31 31 30 30 30 32 33 34 35 38 41 43 46 48 50 53 56 57 57 57 56 54 51 49 46 43 43 44 46 47 48 50 49 46 45 43 40 38
30 29 29 29 29 30 30 32 33 35 37 40 43 46 49 51 54 57 58 58 58 56 53 51 48 45 43 44 45 47 48 50 49 47 45 44 42 39
29 28 28 28 28 28 28 29 30 31 34 37 40 43 47 50 53 56 58 60 60 58 56 52 49 46 44 43 45 47 48 49 49 48 46 44 42 40
28 27 27 26 26 25 26 26 27 28 30 33 37 40 44 47 51 54 56 59 60 60 58 55 51 49 45 43 44 45 47 48 49 49 47 46 43 40
27 26 25 24 24 24 24 24 25 26 28 30 33 37 41 44 48 52 54 58 60 61 60 57 54 52 49 46 46 46 47 49 50 50 49 46 43 41
26 25 24 24 24 23 22 23 23 24 25 28 31 34 38 42 45 49 52 55 58 61 60 58 56 54 51 48 49 47 48 49 50 51 49 47 44 42
25 24 23 22 22 21 21 21 20 21 22 25 27 31 35 40 43 46 49 54 57 59 61 60 58 56 53 51 50 49 49 50 51 51 49 47 45 43
24 23 22 21 20 19 19 20 19 19 20 21 24 26 31 36 41 44 47 50 55 57 60 59 58 57 54 53 51 51 51 51 51 51 50 48 46 44
23 22 21 20 19 18 18 18 18 18 17 18 20 23 27 32 38 42 44 47 51 55 58 59 58 58 57 55 52 52 53 53 53 51 50 49 47 45
22 21 20 19 18 17 16 16 16 16 16 16 18 21 25 29 34 39 42 44 48 52 55 57 58 59 59 56 53 51 52 54 54 53 52 51 49 46
21 21 20 19 17 16 16 16 16 16 16 16 17 20 24 27 31 36 39 42 45 49 53 55 57 59 59 58 55 52 51 52 53 53 52 51 50 48
Wind_Direction
284 279 274 270 266 262 257 253 249 246 245 244 241 240 238 235 234 234 232 231 231 230 228 226 225 225 224 225 226 226 227 229 231 232 234 237 239 239
285 280 275 270 266 262 258 254 250 246 244 243 241 239 238 236 235 234 233 231 231 230 229 226 226 225 224 225 226 227 227 229 231 231 234 236 238 239
286 281 276 271 267 262 258 254 250 247 244 242 241 239 238 237 236 235 234 232 231 230 228 227 226 226 224 225 226 227 227 228 230 231 233 235 236 238
287 282 276 271 267 263 258 254 251 247 244 241 240 239 238 236 236 235 233 232 231 229 228 227 227 226 225 224 226 226 227 228 229 230 231 233 235 237
287 282 277 272 267 263 259 255 251 248 244 241 239 238 238 236 235 234 233 232 232 230 228 227 227 226 225 224 225 225 226 227 227 228 230 232 233 235
288 283 278 272 268 263 259 255 251 248 245 241 239 238 237 236 234 233 232 231 231 231 229 228 227 227 224 224 223 224 224 224 225 227 229 229 230 232
289 284 279 273 268 264 260 255 252 248 245 242 239 238 237 236 235 232 231 230 230 231 231 229 228 227 223 222 221 222 222 222 223 224 225 226 227 228
290 286 281 276 270 266 261 257 252 248 245 242 239 237 237 236 235 233 231 229 229 231 231 229 228 226 224 222 220 220 219 219 220 222 222 224 224 225
291 288 284 279 274 268 263 258 253 249 246 242 239 237 236 235 235 234 231 229 228 229 230 228 227 225 224 222 219 217 217 217 218 219 219 220 222 224
293 290 286 281 276 270 265 260 254 250 246 243 240 237 235 234 233 233 231 228 227 228 230 229 227 225 222 221 220 218 216 216 216 216 216 217 219 221
294 292 287 283 278 272 267 262 256 251 247 244 241 238 236 233 232 231 230 228 226 227 228 229 227 226 223 221 220 219 218 216 213 213 213 214 216 218
295 292 288 283 279 275 269 263 258 253 249 245 242 239 236 233 231 229 228 226 225 225 226 227 227 228 224 223 221 218 216 213 212 211 210 211 213 215
296 293 288 284 282 277 272 266 260 255 251 246 242 239 236 233 231 229 227 226 224 224 224 225 227 227 226 223 221 218 216 212 209 208 208 210 211 213
297 293 289 286 284 280 275 268 262 256 251 246 242 238 235 233 230 228 227 225 223 223 223 223 223 225 225 224 222 218 214 210 207 206 207 208 210 212
299 294 292 289 286 282 276 271 263 257 252 246 242 238 235 232 229 228 226 224 223 222 222 221 221 221 222 223 221 218 214 210 206 206 207 208 209 211
301 298 293 290 288 281 277 272 265 259 254 248 242 238 234 231 228 226 225 223 221 221 220 219 219 219 220 221 220 218 214 211 208 206 208 208 210 211
303 300 296 292 289 283 278 273 267 261 256 248 242 237 232 228 226 224 223 222 221 220 219 218 218 218 218 220 218 217 213 211 209 207 208 209 210 212
303 302 299 294 289 282 277 274 269 262 257 250 242 236 231 227 224 223 222 219 218 218 217 217 216 216 216 216 215 214 212 210 210 208 208 209 210 212
305 304 303 298 290 281 276 274 269 263 256 249 241 234 229 225 222 221 219 218 216 216 215 215 215 215 216 215 213 213 212 210 210 209 209 210 211 213
308 305 303 301 294 282 274 272 269 264 258 249 240 232 226 222 219 217 217 215 214 214 214 214 213 213 214 214 213 212 211 210 209 210 210 211 212 214
311 306 303 301 295 284 274 270 265 262 257 247 236 228 221 217 215 214 214 213 213 213 213 212 211 211 212 213 211 210 210 209 209 209 210 211 212 213
311 306 302 299 294 284 273 267 261 256 254 247 235 224 217 213 212 212 212 212 211 211 211 211 210 210 211 211 211 210 209 209 209 210 211 212 213 214
311 307 303 299 292 284 274 265 257 251 246 238 228 218 212 209 210 209 210 210 209 209 210 211 211 210 210 211 212 211 210 209 209 210 211 212 213 215
Height
5755 5753 5752 5751 5751 5752 5753 5755 5757 5759 5761 5763 5767 5770 5773 5777 5781 5785 5789 5794 5799 5804 5809 5815 5822 5828 5834 5840 5846 5851 5856 5861 5866 5870 5874 5878 5881 5884
5744 5742 5740 5739 5739 5739 5740 5742 5744 5747 5750 5752 5755 5758 5762 5767 5771 5775 5779 5784 5789 5794 5799 5806 5812 5818 5825 5831 5837 5843 5848 5853 5858 5863 5867 5871 5875 5878
5732 5730 5728 5727 5726 5726 5727 5729 5731 5734 5737 5740 5743 5747 5751 5756 5760 5764 5769 5774 5779 5784 5790 5795 5802 5808 5815 5822 5828 5834 5840 5845 5851 5855 5860 5864 5868 5872
5720 5718 5716 5714 5713 5713 5714 5715 5718 5720 5724 5728 5731 5735 5739 5744 5749 5754 5759 5763 5768 5774 5779 5785 5792 5798 5805 5812 5818 5825 5831 5837 5842 5848 5852 5857 5861 5865
5708 5705 5703 5701 5701 5700 5701 5702 5705 5707 5711 5715 5719 5723 5728 5733 5738 5743 5748 5754 5758 5763 5769 5775 5781 5788 5794 5802 5809 5815 5822 5828 5834 5839 5845 5849 5854 5858
5695 5692 5690 5689 5688 5688 5688 5690 5692 5694 5698 5702 5706 5710 5715 5720 5726 5732 5738 5744 5748 5753 5759 5765 5771 5777 5784 5791 5799 5806 5812 5819 5825 5831 5837 5842 5847 5851
5682 5680 5678 5676 5675 5675 5676 5677 5679 5682 5685 5689 5694 5698 5703 5708 5714 5721 5727 5733 5738 5743 5749 5755 5761 5767 5773 5780 5788 5795 5803 5809 5816 5822 5829 5834 5839 5844
5670 5667 5665 5664 5663 5662 5663 5664 5666 5668 5672 5676 5680 5685 5691 5696 5702 5708 5715 5722 5729 5735 5739 5745 5751 5757 5764 5771 5778 5785 5793 5800 5807 5814 5820 5826 5832 5837
5658 5655 5653 5651 5650 5649 5650 5651 5652 5655 5658 5662 5667 5672 5678 5684 5690 5696 5703 5710 5718 5724 5729 5735 5741 5747 5754 5760 5768 5775 5783 5790 5798 5805 5812 5818 5825 5830
5647 5644 5641 5638 5637 5636 5636 5637 5639 5641 5644 5648 5654 5659 5663 5669 5676 5683 5690 5699 5707 5713 5719 5725 5731 5738 5744 5750 5758 5765 5773 5781 5789 5796 5803 5810 5817 5823
5636 5633 5629 5627 5625 5623 5623 5624 5626 5627 5630 5634 5639 5644 5650 5657 5663 5671 5679 5687 5695 5702 5709 5715 5722 5728 5734 5741 5748 5755 5763 5771 5779 5787 5795 5802 5809 5815
5625 5621 5618 5616 5613 5611 5611 5611 5612 5614 5616 5620 5625 5630 5636 5643 5650 5658 5666 5674 5683 5691 5699 5706 5712 5718 5725 5731 5738 5746 5753 5761 5769 5778 5786 5794 5801 5808
5614 5611 5607 5605 5602 5600 5599 5599 5599 5600 5602 5606 5610 5616 5622 5628 5636 5644 5653 5662 5671 5680 5688 5695 5703 5710 5716 5723 5729 5737 5745 5753 5761 5769 5778 5786 5794 5801
5604 5601 5597 5594 5592 5589 5587 5587 5587 5587 5589 5592 5597 5602 5608 5615 5622 5631 5640 5649 5658 5668 5676 5685 5693 5701 5708 5714 5721 5728 5736 5744 5753 5762 5770 5778 5786 5794
5595 5591 5588 5584 5581 5579 5577 5575 5575 5575 5577 5580 5584 5589 5594 5600 5608 5617 5626 5635 5645 5655 5665 5674 5683 5691 5698 5705 5712 5720 5728 5736 5745 5754 5763 5771 5779 5786
5586 5582 5578 5575 5572 5569 5567 5565 5564 5565 5566 5568 5571 5575 5581 5587 5595 5603 5613 5622 5633 5643 5653 5663 5672 5681 5689 5696 5704 5711 5720 5729 5738 5746 5755 5763 5771 5779
5577 5573 5570 5566 5563 5561 5558 5556 5555 5555 5555 5557 5560 5564 5569 5575 5582 5591 5600 5610 5620 5631 5642 5652 5662 5671 5680 5687 5695 5703 5712 5720 5729 5738 5748 5756 5764 5772
5569 5565 5561 5558 5555 5553 5550 5549 5547 5547 5547 5547 5550 5553 5558 5564 5571 5579 5588 5598 5608 5619 5630 5641 5651 5660 5670 5678 5687 5695 5704 5713 5722 5731 5740 5749 5757 5765
5561 5557 5553 5550 5547 5545 5543 5541 5540 5539 5539 5539 5541 5544 5548 5554 5561 5568 5577 5586 5597 5608 5619 5630 5640 5650 5660 5670 5679 5687 5696 5705 5714 5723 5733 5741 5750 5757
5553 5549 5546 5543 5540 5537 5536 5535 5534 5533 5532 5532 5533 5535 5539 5545 5552 5559 5568 5577 5587 5597 5608 5619 5631 5642 5653 5662 5670 5679 5688 5697 5707 5716 5725 5733 5742 5750
5546 5543 5539 5536 5533 5531 5529 5528 5527 5527 5526 5526 5527 5529 5532 5537 5544 5551 5560 5568 5577 5588 5599 5611 5622 5632 5642 5651 5660 5669 5679 5688 5698 5707 5717 5726 5734 5742
5540 5536 5533 5530 5527 5525 5523 5522 5522 5522 5521 5521 5522 5524 5527 5532 5538 5545 5553 5561 5570 5580 5591 5601 5611 5622 5633 5643 5652 5661 5671 5680 5690 5699 5708 5718 5726 5734
5534 5530 5526 5523 5521 5519 5517 5517 5516 5516 5517 5517 5518 5520 5523 5528 5533 5539 5547 5555 5563 5572 5582 5592 5603 5613 5624 5634 5644 5653 5662 5672 5681 5691 5700 5709 5718 5725